This is the latest recevied weather packets stored in our database for station/object SV4JYD-13. If no packets are shown the sender has not sent any weather packets the latest 10 day(s).
| Time | Temp. | Humidity | Pressure | Rain* | Wind** | Luminosity | Snow |
|---|---|---|---|---|---|---|---|
| 1778162421 | 21.67° C | 63% | 1017 hPa | 0 mm | - | - | - |
| 1778161521 | 22.22° C | 63% | 1017 hPa | 0 mm | - | - | - |
| 1778160620 | 21.67° C | 59% | 1017 hPa | 0 mm | - | - | - |
| 1778159720 | 22.22° C | 59% | 1018 hPa | 0 mm | - | - | - |
| 1778158820 | 22.22° C | 61% | 1018 hPa | 0 mm | - | - | - |
| 1778157019 | 22.22° C | 62% | 1018 hPa | 0 mm | - | - | - |
| 1778156119 | 21.11° C | 62% | 1018 hPa | 0 mm | - | - | - |
| 1778155219 | 21.11° C | 64% | 1019 hPa | 0 mm | - | - | - |
| 1778154319 | 21.11° C | 66% | 1019 hPa | 0 mm | - | - | - |
| 1778153418 | 21.11° C | 69% | 1018 hPa | 0 mm | - | - | - |
| 1778152518 | 21.67° C | 69% | 1018 hPa | 0 mm | - | - | - |
| 1778151618 | 21.67° C | 70% | 1018 hPa | 0 mm | - | - | - |
| 1778150717 | 21.67° C | 72% | 1018 hPa | 0 mm | - | - | - |
| 1778149818 | 21.67° C | 70% | 1018 hPa | 0 mm | - | - | - |
| 1778148917 | 21.67° C | 72% | 1018 hPa | 0 mm | - | - | - |
| 1778148017 | 22.22° C | 79% | 1018 hPa | 0 mm | - | - | - |
| 1778147116 | 22.78° C | 79% | 1018 hPa | 0 mm | - | - | - |
| 1778146216 | 20° C | 75% | 1018 hPa | 0 mm | - | - | - |
| 1778145316 | 20° C | 73% | 1018 hPa | 0 mm | - | - | - |
| 1778144415 | 20° C | 76% | 1018 hPa | 0 mm | - | - | - |
| 1778143515 | 20° C | 79% | 1018 hPa | 0 mm | - | - | - |
| 1778142615 | 20° C | 83% | 1018 hPa | 0 mm | - | - | - |
| 1778141715 | 20° C | 83% | 1018 hPa | 0 mm | - | - | - |
| 1778140814 | 20° C | 84% | 1018 hPa | 0 mm | - | - | - |
| 1778139914 | 20° C | 85% | 1018 hPa | 0 mm | - | - | - |
* Rain latest hour (hover to see other rain measurements)
** Current wind speed in m/s (hover to see current wind gust speed)